Hourly Weather Roundup
Issued by NWS Central Illinois

Home | Current Version | Previous Version | Text Only | Print | Product List | Glossary On
Versions: 1 2 3 4 5 6 7 8 9 10 11 12 13 14 15 16 17 18 19 20 21 22 23 24 25 26 27 28 29 30 31 32 33 34 35 36 37 38 39 40 41 42 43 44 45 46 47 48 49 50
000
NZUS43 KILX 250510
HWRILX

Area Weather Roundup
National Weather Service Lincoln IL
1200 AM CDT WED APR 25 2018

NOTE:  "FAIR" indicates few or no clouds below 12,000 feet, with
       no sigificant weather and/or obstructions to visibility.


CITY           SKY/WX    TMP DP  RH WIND       PRES   REMARKS
Bloomington    FAIR      51  49  92 SE5       30.01S
Champaign      FAIR      49  48  97 N5        29.99F FOG
Danville       FAIR      49  49 100 N7        29.96S
Decatur        FAIR      50  48  93 CALM      29.99F FOG
Effingham      FAIR      50  50 100 CALM      30.00F FOG
Flora          FAIR      51  49  95 CALM      29.99S FOG
Galesburg      FAIR      57  37  47 NW6       30.01F
Jacksonville   CLOUDY    53  33  46 NW3       29.99S
Lacon          FAIR      51  44  76 CALM      30.00S
Lawrenceville  FAIR      53  52  96 MISG      29.98S
Litchfield     PTCLDY    52  50  93 S5        29.99F
$$


CITY           SKY/WX    TMP DP  RH WIND       PRES   REMARKS
Lincoln        FAIR      52  51  94 CALM      29.99F
Macomb         PTCLDY    56  34  43 NW10      30.03S
Mattoon        FAIR      50  50 100 NW3       29.98S FOG
Mt Carmel AP   FOG       51  50  97 CALM      29.98S VSB 1/4
Olney-Noble AP FAIR      51  49  93 NW5       29.99F
Paris AP       FAIR      47  47  99 NW5       29.99S
Peoria           N/A     57  42  57 NE6       30.00S
Pontiac        FAIR      46  46  98 CALM      30.01S
Rantoul        FAIR      51  51  98 N3        29.99S
Robinson       FAIR      48  48 100 NW3       29.99S FOG
Springfield    FAIR      53  44  71 CALM      29.99S
Taylorville    FAIR      52  50  93 S3        30.00S
$$

...REGIONAL REPORTS...


CITY           SKY/WX    TMP DP  RH WIND       PRES   REMARKS
Chicago O`Hare FAIR      48  44  86 N10       30.02R
Kankakee       FAIR      45  44  95 N3        30.01S
La Salle       FAIR      55  47  75 E3        30.02R
Moline         FAIR      64  39  39 N12       30.00S
Mount Sterling MOCLDY    55  35  45 NW8       30.01S
Mount Vernon   FOG       47  47 100 CALM      30.00S VSB 1/4
Pittsfield     CLEAR     53  38  56 NW5       30.02S
Quincy         PTCLDY    59  38  45 NW10      30.02S
Rockford       CLOUDY    53  46  77 NE12      30.06R
$$


CITY           SKY/WX    TMP DP  RH WIND       PRES   REMARKS
Burlington     MOCLDY    61  39  44 NW8       30.02S
Cedar Rapids   FAIR      56  40  55 N12       30.07S
Des Moines     MOCLDY    54  42  64 N15       30.16S
Kirksville     CLOUDY    59  45  59 N12G22    30.07F
Ottumwa        CLOUDY    57  43  59 N16       30.09S
St Louis       PTCLDY    54  43  66 CALM      30.00S
$$


CITY           SKY/WX    TMP DP  RH WIND       PRES   REMARKS
Terre Haute    FAIR      51  50  96 CALM      29.97S
Evansville     FAIR      55  55 100 W5        29.98S FOG
Indianapolis   CLOUDY    53  51  93 NW7       29.95S
Lafayette      MOCLDY    54  49  83 N7        29.96F
Madison        CLOUDY    51  33  50 NE14      30.09R
Milwaukee      FAIR      43  33  68 N23G30    30.07S WCI  34
$$






USA.gov is the U.S. government's official web portal to all federal, state and local government web resources and services.